(353791) = 2012 PH43 = 1992 SR4

Discovered at Kitt Peak on 1992-09-24 by Spacewatch.

Orbit

Orbit type: Main Belt

Note: WebGL enabled browser required.

epoch2023-09-13.0
epoch JD2460200.5
perihelion date2023-03-21.87821
perihelion JD2460025.37821
argument of perihelion (°)298.82342
ascending node (°)79.66798
inclination (°)2.95800
eccentricity0.1143771
perihelion distance (AU)2.6071030
Tisserand w.r.t. Jupiter3.3
ΔV w.r.t. Earth (km/sec)10.1
semimajor axis (AU)2.9438070
mean anomaly (°)34.17276
mean daily motion (°/day)0.19513710
aphelion distance (AU)3.281
period (years)5.05
P-vector [x]0.94722286
P-vector [y]0.30916667
P-vector [z]0.08476331
Q-vector [x]-0.31653050
Q-vector [y]0.86011167
Q-vector [z]0.40002046
absolute magnitude16.63
phase slope0.15
uncertainty0
referenceMPEC 2024-A26
observations used173
oppositions13
arc length (days)11422
first opposition used1992
last opposition used2024
residual rms (arc-secs)0.83
perturbers coarse indicatorM-v
perturbers precise indicator003Ek
first observation date used1992-09-24.0
last observation date used2024-01-02.0
computer nameMPCLINUX
JD of orbit computation2456639.560629
perihelion JD uncertainty (days)2.9044E-04
argument of perihelion uncertainty (°)2.9740E-04
ascending node uncertainty (°)2.9143E-04
inclination uncertainty (°)6.7444E-06
eccentricity uncertainty 1.1919E-07
perihelion distance uncertainty (AU)3.5306E-07
Minimum Orbit Intersection Distances (in AU)
for orbit epoch: 2460200.5, reference: E2023-Y46
Mercury2.25996
Venus1.88184
Earth1.60996
Mars1.17313
Jupiter2.17199
Saturn6.12498
Uranus15.2113
Neptune27.2159

Observations

177 total observations over interval: 1992 09 24.35184 – 2024 01 02.319426
These data are available for download (format description).

Date (UT) J2000 RA J2000 Dec Magn Location Ref
1992 09 24.35184 00 25 44.77 -02 17 46.0   691 – Steward Observatory, Kitt Peak-Spacewatch MPC 21024
1992 09 24.35961 00 25 44.42 -02 17 47.9   691 – Steward Observatory, Kitt Peak-Spacewatch MPC 21024
1992 09 24.36701 00 25 44.09 -02 17 50.4 20.1 V 691 – Steward Observatory, Kitt Peak-Spacewatch MPC 21024
1992 09 25.34748 00 24 58.19 -02 22 33.2   691 – Steward Observatory, Kitt Peak-Spacewatch MPC 21024
1992 09 25.36575 00 24 57.29 -02 22 38.4 20.2 V 691 – Steward Observatory, Kitt Peak-Spacewatch MPC 21024
1992 09 25.38422 00 24 56.44 -02 22 43.6   691 – Steward Observatory, Kitt Peak-Spacewatch MPC 21024
2007 09 12.27701 23 08 51.75 -10 37 02.0 19.8 V 691 – Steward Observatory, Kitt Peak-Spacewatch MPS 433405
2007 09 12.29806 23 08 50.72 -10 37 09.0 19.9 V 691 – Steward Observatory, Kitt Peak-Spacewatch MPS 433405
2007 09 12.31911 23 08 49.70 -10 37 14.7 20.2 V 691 – Steward Observatory, Kitt Peak-Spacewatch MPS 433405
2007 09 12.32327 23 08 49.52 -10 37 16.1 20.0 V G96 – Mt. Lemmon Survey MPS 433405
2007 09 12.33034 23 08 49.20 -10 37 17.7 20.0 V G96 – Mt. Lemmon Survey MPS 433405
2007 09 12.33740 23 08 48.84 -10 37 20.0 20.0 V G96 – Mt. Lemmon Survey MPS 433405
2007 09 12.34444 23 08 48.48 -10 37 22.1 20.1 V G96 – Mt. Lemmon Survey MPS 433405
2007 09 20.18041 23 02 50.36 -11 11 44.0 20.1 V 691 – Steward Observatory, Kitt Peak-Spacewatch MPS 433405
2007 09 20.19801 23 02 49.53 -11 11 47.8 19.8 V 691 – Steward Observatory, Kitt Peak-Spacewatch MPS 433405
2007 09 20.21562 23 02 48.79 -11 11 51.9 20.0 V 691 – Steward Observatory, Kitt Peak-Spacewatch MPS 433405
2007 10 15.18574 22 49 31.11 -12 06 38.7 20.8 V G96 – Mt. Lemmon Survey MPS 433405
2007 10 15.19404 22 49 30.93 -12 06 38.4 20.8 V G96 – Mt. Lemmon Survey MPS 433405
2007 10 15.20236 22 49 30.79 -12 06 39.3 20.1 V G96 – Mt. Lemmon Survey MPS 433405
2007 10 15.21067 22 49 30.64 -12 06 38.9 20.6 V G96 – Mt. Lemmon Survey MPS 433405
2008 12 21.18492 06 34 35.53 +24 23 00.9 20.6 V 691 – Steward Observatory, Kitt Peak-Spacewatch MPS 433405
2008 12 21.20674 06 34 34.29 +24 23 03.4 20.7 V 691 – Steward Observatory, Kitt Peak-Spacewatch MPS 433405
2008 12 21.22488 06 34 33.23 +24 23 05.5 20.6 V 691 – Steward Observatory, Kitt Peak-Spacewatch MPS 433405
2010 02 18.36723 12 12 03.24 +03 07 47.7   291 – LPL/Spacewatch II MPS 433405
2010 02 18.37382 12 12 03.04 +03 07 49.2   291 – LPL/Spacewatch II MPS 433405
2010 02 18.37927 12 12 02.86 +03 07 50.4   291 – LPL/Spacewatch II MPS 433405
2010 02 18.38559 12 12 02.69 +03 07 51.8   291 – LPL/Spacewatch II MPS 433405
2010 02 18.39111 12 12 02.51 +03 07 53.1   291 – LPL/Spacewatch II MPS 433405
2010 02 18.39674 12 12 02.33 +03 07 54.4   291 – LPL/Spacewatch II MPS 433405
2010 03 16.17729 11 54 47.63 +05 11 36.7 21.3 V 691 – Steward Observatory, Kitt Peak-Spacewatch MPS 433405
2010 03 16.19494 11 54 46.78 +05 11 42.2 21.5 V 691 – Steward Observatory, Kitt Peak-Spacewatch MPS 433405
2010 03 16.21258 11 54 45.96 +05 11 47.1 20.9 V 691 – Steward Observatory, Kitt Peak-Spacewatch MPS 433405
2012 07 25.34229 23 08 42.45 -09 52 38.0 20.9 V G53 – Alder Springs Observatory, Auberry MPS 431997
2012 07 25.37533 23 08 42.04 -09 52 43.7 20.8 V G53 – Alder Springs Observatory, Auberry MPS 431997
2012 07 25.40836 23 08 41.61 -09 52 48.8 20.9 V G53 – Alder Springs Observatory, Auberry MPS 431997
2012 08 14.48217 23 00 20.373 -11 12 19.15 20.3 w F51 – Pan-STARRS 1, Haleakala MPS 431110
2012 08 14.49721 23 00 19.781 -11 12 23.60 20.3 w F51 – Pan-STARRS 1, Haleakala MPS 431110
2012 08 14.51227 23 00 19.203 -11 12 28.00 20.2 w F51 – Pan-STARRS 1, Haleakala MPS 431110
2012 08 14.52730 23 00 18.615 -11 12 32.42 20.2 w F51 – Pan-STARRS 1, Haleakala MPS 431110
2012 08 26.33839 22 52 03.93 -12 12 29.4 20.2 V G96 – Mt. Lemmon Survey MPS 431110
2012 08 26.34811 22 52 03.43 -12 12 32.7 19.8 V G96 – Mt. Lemmon Survey MPS 431110
2012 08 26.35778 22 52 03.00 -12 12 35.1 19.8 V G96 – Mt. Lemmon Survey MPS 431110
2012 08 26.36744 22 52 02.53 -12 12 38.3 20.0 V G96 – Mt. Lemmon Survey MPS 431110
2012 12 31.21821 23 17 28.685 -07 24 27.43 21.9 w F51 – Pan-STARRS 1, Haleakala MPS 448794
2012 12 31.22218 23 17 28.968 -07 24 25.57 21.8 w F51 – Pan-STARRS 1, Haleakala MPS 448794
2012 12 31.22614 23 17 29.260 -07 24 23.10 21.8 w F51 – Pan-STARRS 1, Haleakala MPS 448794
2013 11 24.61256 06 29 19.635 +23 39 59.43 20.9 i F51 – Pan-STARRS 1, Haleakala MPS 489888
2013 11 24.62652 06 29 19.127 +23 40 00.51 20.7 i F51 – Pan-STARRS 1, Haleakala MPS 489888
2015 02 15.47440 11 58 25.789 +04 36 50.22 21.5 w F51 – Pan-STARRS 1, Haleakala MPS 583065
2015 02 15.48766 11 58 25.388 +04 36 53.71 21.4 w F51 – Pan-STARRS 1, Haleakala MPS 583065
2015 02 15.50092 11 58 24.989 +04 36 57.41 21.7 w F51 – Pan-STARRS 1, Haleakala MPS 583065
2015 02 19.50428 11 56 15.158 +04 54 21.90 21.4 w F51 – Pan-STARRS 1, Haleakala MPS 583065
2015 02 19.51670 11 56 14.701 +04 54 25.25 21.4 w F51 – Pan-STARRS 1, Haleakala MPS 583065
2015 02 19.52915 11 56 14.267 +04 54 28.81 21.3 w F51 – Pan-STARRS 1, Haleakala MPS 583065
2015 03 24.49275 11 32 18.592 +07 35 32.42 21.1 w F51 – Pan-STARRS 1, Haleakala MPS 595083
2015 03 24.50422 11 32 18.072 +07 35 35.28 21.0 w F51 – Pan-STARRS 1, Haleakala MPS 595083
2015 03 24.51567 11 32 17.549 +07 35 38.30 21.0 w F51 – Pan-STARRS 1, Haleakala MPS 595083
2015 03 25.49537 11 31 33.908 +07 39 51.15 21.1 w F51 – Pan-STARRS 1, Haleakala MPS 595083
2015 03 25.50684 11 31 33.392 +07 39 53.95 21.2 w F51 – Pan-STARRS 1, Haleakala MPS 595083
2015 03 25.51828 11 31 32.872 +07 39 56.78 21.2 w F51 – Pan-STARRS 1, Haleakala MPS 595083
2015 03 25.52977 11 31 32.350 +07 39 59.76 21.4 w F51 – Pan-STARRS 1, Haleakala MPS 595083
2017 07 24.48847 22 43 40.881 -12 21 43.37 20.7 w F51 – Pan-STARRS 1, Haleakala MPS 807781
2017 07 24.49943 22 43 40.656 -12 21 45.67 20.6 w F51 – Pan-STARRS 1, Haleakala MPS 807781
2017 07 24.51037 22 43 40.426 -12 21 48.08 20.7 w F51 – Pan-STARRS 1, Haleakala MPS 807781
2017 07 24.52131 22 43 40.193 -12 21 50.19 20.7 w F51 – Pan-STARRS 1, Haleakala MPS 807781
2017 08 01.49097 22 40 24.396 -12 52 59.72 20.4 w F51 – Pan-STARRS 1, Haleakala MPS 809170
2017 08 01.50230 22 40 24.041 -12 53 02.57 20.6 w F51 – Pan-STARRS 1, Haleakala MPS 809170
2017 08 17.43008 22 30 19.634 -14 09 33.58 20.2 w F51 – Pan-STARRS 1, Haleakala MPS 811899
2017 08 17.44105 22 30 19.124 -14 09 36.90 20.2 w F51 – Pan-STARRS 1, Haleakala MPS 811899
2017 08 17.45202 22 30 18.611 -14 09 40.28 20.2 w F51 – Pan-STARRS 1, Haleakala MPS 811899
2017 08 17.46298 22 30 18.094 -14 09 43.58 20.3 w F51 – Pan-STARRS 1, Haleakala MPS 811899
2017 08 30.33666 22 20 12.894 -15 13 09.08 19.7 i F51 – Pan-STARRS 1, Haleakala MPS 814877
2017 08 30.34790 22 20 12.337 -15 13 12.18 20.0 i F51 – Pan-STARRS 1, Haleakala MPS 814877
2017 09 14.36956 22 09 05.541 -16 11 11.81 20.3 w F51 – Pan-STARRS 1, Haleakala MPS 816880
2017 09 14.38099 22 09 05.069 -16 11 13.86 20.5 w F51 – Pan-STARRS 1, Haleakala MPS 816880
2017 09 14.39241 22 09 04.598 -16 11 15.84 20.4 w F51 – Pan-STARRS 1, Haleakala MPS 816880
2017 09 14.40381 22 09 04.132 -16 11 17.87 20.5 w F51 – Pan-STARRS 1, Haleakala MPS 816880
2017 09 16.36228 22 07 49.578 -16 16 50.67 20.4 w F51 – Pan-STARRS 1, Haleakala MPS 818809
2017 09 16.37418 22 07 49.114 -16 16 52.68 20.6 w F51 – Pan-STARRS 1, Haleakala MPS 818809
2017 09 16.38604 22 07 48.650 -16 16 54.49 20.4 w F51 – Pan-STARRS 1, Haleakala MPS 818809
2017 09 16.39791 22 07 48.189 -16 16 56.27 20.4 w F51 – Pan-STARRS 1, Haleakala MPS 818809
2017 09 23.34199 22 03 58.453 -16 32 06.96 20.6 w F51 – Pan-STARRS 1, Haleakala MPS 822889
2017 09 23.35297 22 03 58.111 -16 32 08.04 20.6 w F51 – Pan-STARRS 1, Haleakala MPS 822889
2017 09 23.36396 22 03 57.772 -16 32 09.12 20.5 w F51 – Pan-STARRS 1, Haleakala MPS 822889
2017 09 23.37494 22 03 57.431 -16 32 10.27 20.6 w F51 – Pan-STARRS 1, Haleakala MPS 822889
2018 12 10.35235 05 53 18.92 +23 49 50.2 20.8 G G96 – Mt. Lemmon Survey MPS 965802
2018 12 10.35768 05 53 18.60 +23 49 50.3 20.5 G G96 – Mt. Lemmon Survey MPS 965802
2018 12 10.36300 05 53 18.29 +23 49 50.8 20.4 G G96 – Mt. Lemmon Survey MPS 965802
2018 12 10.36833 05 53 18.01 +23 49 50.8 20.2 G G96 – Mt. Lemmon Survey MPS 965802
